Time,TemperatureF,DewpointF,PressureIn,WindDirection,WindDirectionDegrees,WindSpeedMPH,WindSpeedGustMPH,Humidity,HourlyPrecipIn,Conditions,Clouds,dailyrainin,SoftwareType,DateUTC
2013-01-18 00:02:00,32.0,11.0,-100.00,SW,230,30.0,39.0,41,0.00,,,-99.99,,2013-01-18 07:02:00,
2013-01-18 00:12:00,31.0,10.0,-100.00,SW,215,29.0,39.0,41,0.00,,,-99.99,,2013-01-18 07:12:00,
2013-01-18 00:22:00,32.0,11.0,-100.00,South,175,32.0,40.0,41,0.00,,,-99.99,,2013-01-18 07:22:00,
2013-01-18 00:32:00,32.0,11.0,-100.00,SSW,205,35.0,45.0,40,0.00,,,-99.99,,2013-01-18 07:32:00,
2013-01-18 00:42:00,32.0,11.0,-100.00,South,190,30.0,45.0,40,0.00,,,-99.99,,2013-01-18 07:42:00,
2013-01-18 00:52:00,32.0,11.0,-100.00,South,190,29.0,44.0,40,0.00,,,-99.99,,2013-01-18 07:52:00,
2013-01-18 01:02:00,32.0,11.0,-100.00,SW,225,26.0,35.0,40,0.00,,,-99.99,,2013-01-18 08:02:00,
2013-01-18 01:12:00,32.0,11.0,-100.00,South,180,27.0,35.0,40,0.00,,,-99.99,,2013-01-18 08:12:00,
2013-01-18 01:22:00,32.0,10.0,-100.00,South,170,28.0,39.0,40,0.00,,,-99.99,,2013-01-18 08:22:00,
2013-01-18 01:32:00,32.0,11.0,-100.00,SSE,160,30.0,40.0,40,0.00,,,-99.99,,2013-01-18 08:32:00,
2013-01-18 01:42:00,32.0,11.0,-100.00,SSE,160,29.0,43.0,40,0.00,,,-99.99,,2013-01-18 08:42:00,
2013-01-18 01:52:00,32.0,10.0,-100.00,SSE,165,32.0,40.0,39,0.00,,,-99.99,,2013-01-18 08:52:00,
2013-01-18 02:02:00,32.0,10.0,-100.00,SSW,195,32.0,45.0,39,0.00,,,-99.99,,2013-01-18 09:02:00,
2013-01-18 02:12:00,32.0,10.0,-100.00,SW,220,31.0,39.0,39,0.00,,,-99.99,,2013-01-18 09:12:00,
2013-01-18 02:22:00,32.0,10.0,-100.00,SSW,210,33.0,41.0,39,0.00,,,-99.99,,2013-01-18 09:22:00,
2013-01-18 02:33:00,32.0,10.0,-100.00,SW,220,32.0,38.0,39,0.00,,,-99.99,,2013-01-18 09:33:00,
2013-01-18 02:42:00,32.0,10.0,-100.00,South,185,29.0,41.0,39,0.00,,,-99.99,,2013-01-18 09:42:00,
2013-01-18 02:52:00,31.0,10.0,-100.00,South,190,26.0,39.0,40,0.00,,,-99.99,,2013-01-18 09:52:00,
2013-01-18 03:02:00,32.0,10.0,-100.00,South,190,32.0,39.0,40,0.00,,,-99.99,,2013-01-18 10:02:00,
2013-01-18 03:12:00,31.0,10.0,-100.00,SW,225,30.0,41.0,40,0.00,,,-99.99,,2013-01-18 10:12:00,
2013-01-18 03:22:00,31.0,10.0,-100.00,SSW,200,31.0,38.0,40,0.00,,,-99.99,,2013-01-18 10:22:00,
2013-01-18 03:32:00,31.0,10.0,-100.00,SSW,195,32.0,40.0,40,0.00,,,-99.99,,2013-01-18 10:32:00,
2013-01-18 03:42:00,31.0,10.0,-100.00,SSW,200,32.0,37.0,39,0.00,,,-99.99,,2013-01-18 10:42:00,
2013-01-18 03:52:00,31.0,9.0,-100.00,South,190,32.0,42.0,39,0.00,,,-99.99,,2013-01-18 10:52:00,
2013-01-18 04:02:00,31.0,9.0,-100.00,SSW,210,29.0,42.0,39,0.00,,,-99.99,,2013-01-18 11:02:00,
2013-01-18 04:12:00,31.0,9.0,-100.00,SSW,210,32.0,39.0,39,0.00,,,-99.99,,2013-01-18 11:12:00,
2013-01-18 04:22:00,31.0,9.0,-100.00,SSE,160,27.0,37.0,39,0.00,,,-99.99,,2013-01-18 11:22:00,
2013-01-18 04:32:00,31.0,9.0,-100.00,SSW,210,29.0,34.0,39,0.00,,,-99.99,,2013-01-18 11:32:00,
2013-01-18 04:42:00,31.0,9.0,-100.00,SW,215,30.0,37.0,40,0.00,,,-99.99,,2013-01-18 11:42:00,
2013-01-18 04:52:00,31.0,10.0,-100.00,SSW,210,31.0,42.0,40,0.00,,,-99.99,,2013-01-18 11:52:00,
2013-01-18 05:02:00,30.0,9.0,-100.00,South,190,29.0,45.0,40,0.00,,,-99.99,,2013-01-18 12:02:00,
2013-01-18 05:12:00,30.0,9.0,-100.00,SSW,205,29.0,37.0,40,0.00,,,-99.99,,2013-01-18 12:12:00,
2013-01-18 05:22:00,30.0,9.0,-100.00,SSW,205,29.0,37.0,41,0.00,,,-99.99,,2013-01-18 12:22:00,
2013-01-18 05:33:00,31.0,9.0,-100.00,South,190,32.0,40.0,40,0.00,,,-99.99,,2013-01-18 12:33:00,
2013-01-18 05:42:00,30.0,9.0,-100.00,SSE,160,32.0,39.0,40,0.00,,,-99.99,,2013-01-18 12:42:00,
2013-01-18 05:52:00,30.0,9.0,-100.00,SSW,200,35.0,45.0,40,0.00,,,-99.99,,2013-01-18 12:52:00,
2013-01-18 06:03:00,30.0,9.0,-100.00,South,185,32.0,42.0,40,0.00,,,-99.99,,2013-01-18 13:03:00,
2013-01-18 06:12:00,29.0,9.0,-100.00,SSW,195,31.0,42.0,40,0.00,,,-99.99,,2013-01-18 13:12:00,
2013-01-18 06:23:00,29.0,8.0,-100.00,SSE,165,32.0,43.0,41,0.00,,,-99.99,,2013-01-18 13:23:00,
2013-01-18 06:33:00,29.0,8.0,-100.00,South,180,31.0,40.0,41,0.00,,,-99.99,,2013-01-18 13:33:00,
2013-01-18 06:43:00,29.0,9.0,-100.00,SSW,205,29.0,40.0,41,0.00,,,-99.99,,2013-01-18 13:43:00,
2013-01-18 06:53:00,29.0,8.0,-100.00,SW,220,32.0,40.0,41,0.00,,,-99.99,,2013-01-18 13:53:00,
2013-01-18 07:03:00,29.0,9.0,-100.00,SW,220,34.0,43.0,42,0.00,,,-99.99,,2013-01-18 14:03:00,
2013-01-18 07:12:00,29.0,9.0,-100.00,SW,215,32.0,40.0,42,0.00,,,-99.99,,2013-01-18 14:12:00,
2013-01-18 07:22:00,29.0,9.0,-100.00,SW,225,30.0,39.0,42,0.00,,,-99.99,,2013-01-18 14:22:00,
2013-01-18 07:33:00,29.0,9.0,-100.00,SW,225,30.0,44.0,42,0.00,,,-99.99,,2013-01-18 14:33:00,
2013-01-18 07:42:00,30.0,9.0,-100.00,SSW,205,29.0,44.0,42,0.00,,,-99.99,,2013-01-18 14:42:00,
2013-01-18 07:53:00,31.0,10.0,-100.00,SSW,200,30.0,40.0,41,0.00,,,-99.99,,2013-01-18 14:53:00,
2013-01-18 08:03:00,31.0,10.0,-100.00,South,170,30.0,39.0,41,0.00,,,-99.99,,2013-01-18 15:03:00,
2013-01-18 08:12:00,31.0,10.0,-100.00,South,185,31.0,38.0,41,0.00,,,-99.99,,2013-01-18 15:12:00,
2013-01-18 08:23:00,31.0,10.0,-100.00,SE,140,30.0,42.0,40,0.00,,,-99.99,,2013-01-18 15:23:00,
2013-01-18 08:33:00,31.0,10.0,-100.00,SSW,200,31.0,41.0,40,0.00,,,-99.99,,2013-01-18 15:33:00,
2013-01-18 08:43:00,31.0,10.0,-100.00,SSW,205,30.0,40.0,40,0.00,,,-99.99,,2013-01-18 15:43:00,
2013-01-18 08:53:00,31.0,10.0,-100.00,South,185,28.0,40.0,40,0.00,,,-99.99,,2013-01-18 15:53:00,
2013-01-18 09:03:00,32.0,11.0,-100.00,SW,215,33.0,39.0,40,0.00,,,-99.99,,2013-01-18 16:03:00,
2013-01-18 09:12:00,32.0,11.0,-100.00,South,170,30.0,39.0,40,0.00,,,-99.99,,2013-01-18 16:12:00,
2013-01-18 09:23:00,33.0,11.0,-100.00,SSE,155,29.0,39.0,39,0.00,,,-99.99,,2013-01-18 16:23:00,
2013-01-18 09:33:00,33.0,11.0,-100.00,SW,225,28.0,39.0,39,0.00,,,-99.99,,2013-01-18 16:33:00,
2013-01-18 09:42:00,34.0,12.0,-100.00,South,180,30.0,39.0,39,0.00,,,-99.99,,2013-01-18 16:42:00,
2013-01-18 09:52:00,34.0,11.0,-100.00,SW,225,30.0,42.0,38,0.00,,,-99.99,,2013-01-18 16:52:00,
2013-01-18 10:03:00,34.0,12.0,-100.00,South,175,30.0,37.0,38,0.00,,,-99.99,,2013-01-18 17:03:00,
2013-01-18 10:13:00,34.0,12.0,-100.00,SSW,205,29.0,37.0,38,0.00,,,-99.99,,2013-01-18 17:13:00,
2013-01-18 10:23:00,35.0,12.0,-100.00,SW,220,32.0,42.0,38,0.00,,,-99.99,,2013-01-18 17:23:00,
2013-01-18 10:33:00,35.0,12.0,-100.00,SSE,165,29.0,42.0,37,0.00,,,-99.99,,2013-01-18 17:33:00,
2013-01-18 10:42:00,35.0,12.0,-100.00,South,185,34.0,45.0,37,0.00,,,-99.99,,2013-01-18 17:42:00,
2013-01-18 10:53:00,35.0,12.0,-100.00,South,185,32.0,42.0,37,0.00,,,-99.99,,2013-01-18 17:53:00,
2013-01-18 11:03:00,36.0,12.0,-100.00,SSW,205,33.0,42.0,37,0.00,,,-99.99,,2013-01-18 18:03:00,
2013-01-18 11:12:00,36.0,13.0,-100.00,SSW,195,33.0,44.0,37,0.00,,,-99.99,,2013-01-18 18:12:00,
2013-01-18 11:23:00,36.0,13.0,-100.00,South,175,30.0,47.0,37,0.00,,,-99.99,,2013-01-18 18:23:00,
2013-01-18 11:33:00,36.0,13.0,-100.00,South,180,33.0,47.0,36,0.00,,,-99.99,,2013-01-18 18:33:00,
2013-01-18 11:43:00,37.0,13.0,-100.00,SSW,200,34.0,42.0,37,0.00,,,-99.99,,2013-01-18 18:43:00,
2013-01-18 11:52:00,37.0,13.0,-100.00,SW,220,32.0,44.0,37,0.00,,,-99.99,,2013-01-18 18:52:00,
2013-01-18 12:03:00,37.0,13.0,-100.00,SSW,210,34.0,44.0,36,0.00,,,-99.99,,2013-01-18 19:03:00,
2013-01-18 12:12:00,37.0,13.0,-100.00,West,260,34.0,44.0,37,0.00,,,-99.99,,2013-01-18 19:12:00,
2013-01-18 12:22:00,37.0,13.0,-100.00,WSW,255,32.0,41.0,37,0.00,,,-99.99,,2013-01-18 19:22:00,
2013-01-18 12:33:00,37.0,13.0,-100.00,South,170,32.0,45.0,37,0.00,,,-99.99,,2013-01-18 19:33:00,
2013-01-18 12:42:00,37.0,14.0,-100.00,SSW,210,30.0,45.0,37,0.00,,,-99.99,,2013-01-18 19:42:00,
2013-01-18 12:52:00,38.0,14.0,-100.00,South,180,29.0,40.0,37,0.00,,,-99.99,,2013-01-18 19:52:00,
2013-01-18 13:03:00,38.0,14.0,-100.00,SSW,200,29.0,37.0,37,0.00,,,-99.99,,2013-01-18 20:03:00,
2013-01-18 13:12:00,38.0,14.0,-100.00,SW,235,32.0,41.0,37,0.00,,,-99.99,,2013-01-18 20:12:00,
2013-01-18 13:23:00,38.0,14.0,-100.00,West,260,29.0,40.0,37,0.00,,,-99.99,,2013-01-18 20:23:00,
2013-01-18 13:33:00,37.0,14.0,-100.00,SSW,205,32.0,39.0,38,0.00,,,-99.99,,2013-01-18 20:33:00,
2013-01-18 13:42:00,37.0,14.0,-100.00,WSW,255,32.0,45.0,37,0.00,,,-99.99,,2013-01-18 20:42:00,
2013-01-18 13:52:00,38.0,14.0,-100.00,SSW,205,31.0,45.0,38,0.00,,,-99.99,,2013-01-18 20:52:00,
2013-01-18 14:03:00,37.0,14.0,-100.00,SSW,205,31.0,46.0,37,0.00,,,-99.99,,2013-01-18 21:03:00,
2013-01-18 14:12:00,37.0,13.0,-100.00,SSW,210,31.0,44.0,37,0.00,,,-99.99,,2013-01-18 21:12:00,
2013-01-18 14:22:00,37.0,14.0,-100.00,South,185,34.0,45.0,37,0.00,,,-99.99,,2013-01-18 21:22:00,
2013-01-18 14:33:00,37.0,14.0,-100.00,SW,215,31.0,40.0,37,0.00,,,-99.99,,2013-01-18 21:33:00,
2013-01-18 14:42:00,37.0,14.0,-100.00,SW,215,28.0,42.0,37,0.00,,,-99.99,,2013-01-18 21:42:00,
2013-01-18 14:52:00,37.0,13.0,-100.00,SSW,205,31.0,40.0,37,0.00,,,-99.99,,2013-01-18 21:52:00,
2013-01-18 15:03:00,37.0,13.0,-100.00,South,180,30.0,42.0,37,0.00,,,-99.99,,2013-01-18 22:03:00,
2013-01-18 15:12:00,37.0,13.0,-100.00,SSW,200,31.0,40.0,37,0.00,,,-99.99,,2013-01-18 22:12:00,
2013-01-18 15:22:00,36.0,13.0,-100.00,West,260,30.0,42.0,37,0.00,,,-99.99,,2013-01-18 22:22:00,
2013-01-18 15:32:00,36.0,13.0,-100.00,SSW,200,30.0,42.0,37,0.00,,,-99.99,,2013-01-18 22:32:00,
2013-01-18 15:42:00,36.0,13.0,-100.00,SSW,210,28.0,39.0,38,0.00,,,-99.99,,2013-01-18 22:42:00,
2013-01-18 15:52:00,35.0,12.0,-100.00,SSW,200,27.0,40.0,38,0.00,,,-99.99,,2013-01-18 22:52:00,
2013-01-18 16:03:00,35.0,12.0,-100.00,South,190,39.0,45.0,38,0.00,,,-99.99,,2013-01-18 23:03:00,
2013-01-18 16:12:00,34.0,12.0,-100.00,South,175,34.0,45.0,38,0.00,,,-99.99,,2013-01-18 23:12:00,
2013-01-18 16:22:00,35.0,12.0,-100.00,South,185,40.0,49.0,38,0.00,,,-99.99,,2013-01-18 23:22:00,
2013-01-18 16:33:00,34.0,12.0,-100.00,SW,225,37.0,56.0,38,0.00,,,-99.99,,2013-01-18 23:33:00,
2013-01-18 16:42:00,34.0,12.0,-100.00,South,180,38.0,47.0,38,0.00,,,-99.99,,2013-01-18 23:42:00,
2013-01-18 16:52:00,34.0,11.0,-100.00,South,170,32.0,42.0,39,0.00,,,-99.99,,2013-01-18 23:52:00,
2013-01-18 17:02:00,34.0,12.0,-100.00,SW,225,32.0,41.0,39,0.00,,,-99.99,,2013-01-19 00:02:00,
2013-01-18 17:12:00,34.0,12.0,-100.00,SSW,195,38.0,46.0,39,0.00,,,-99.99,,2013-01-19 00:12:00,
2013-01-18 17:22:00,33.0,11.0,-100.00,SSW,200,35.0,40.0,39,0.00,,,-99.99,,2013-01-19 00:22:00,
2013-01-18 17:33:00,33.0,11.0,-100.00,SSW,210,35.0,43.0,39,0.00,,,-99.99,,2013-01-19 00:33:00,
2013-01-18 17:42:00,33.0,11.0,-100.00,South,185,39.0,45.0,39,0.00,,,-99.99,,2013-01-19 00:42:00,
2013-01-18 17:53:00,33.0,11.0,-100.00,SSW,200,37.0,48.0,39,0.00,,,-99.99,,2013-01-19 00:53:00,
2013-01-18 18:02:00,33.0,11.0,-100.00,SW,225,39.0,49.0,39,0.00,,,-99.99,,2013-01-19 01:02:00,
2013-01-18 18:12:00,33.0,11.0,-100.00,SW,220,37.0,50.0,39,0.00,,,-99.99,,2013-01-19 01:12:00,
2013-01-18 18:22:00,33.0,11.0,-100.00,SW,215,36.0,49.0,40,0.00,,,-99.99,,2013-01-19 01:22:00,
2013-01-18 18:32:00,33.0,11.0,-100.00,SSE,160,35.0,46.0,40,0.00,,,-99.99,,2013-01-19 01:32:00,
2013-01-18 18:42:00,33.0,12.0,-100.00,SSE,160,35.0,45.0,40,0.00,,,-99.99,,2013-01-19 01:42:00,
2013-01-18 18:52:00,33.0,12.0,-100.00,South,190,34.0,44.0,40,0.00,,,-99.99,,2013-01-19 01:52:00,
2013-01-18 19:02:00,33.0,12.0,-100.00,SW,215,38.0,45.0,40,0.00,,,-99.99,,2013-01-19 02:02:00,
2013-01-18 19:12:00,33.0,11.0,-100.00,SW,220,29.0,45.0,40,0.00,,,-99.99,,2013-01-19 02:12:00,
2013-01-18 19:22:00,33.0,11.0,-100.00,West,270,25.0,39.0,40,0.00,,,-99.99,,2013-01-19 02:22:00,
2013-01-18 19:33:00,33.0,11.0,-100.00,SW,220,26.0,32.0,40,0.00,,,-99.99,,2013-01-19 02:33:00,
2013-01-18 19:42:00,33.0,11.0,-100.00,SSW,210,27.0,35.0,40,0.00,,,-99.99,,2013-01-19 02:42:00,
2013-01-18 19:52:00,33.0,11.0,-100.00,South,180,30.0,42.0,40,0.00,,,-99.99,,2013-01-19 02:52:00,
2013-01-18 20:03:00,33.0,12.0,-100.00,SSW,210,32.0,39.0,40,0.00,,,-99.99,,2013-01-19 03:03:00,
2013-01-18 20:12:00,33.0,11.0,-100.00,SW,220,29.0,38.0,40,0.00,,,-99.99,,2013-01-19 03:12:00,
2013-01-18 20:22:00,33.0,11.0,-100.00,SSW,210,30.0,46.0,40,0.00,,,-99.99,,2013-01-19 03:22:00,
2013-01-18 20:33:00,33.0,11.0,-100.00,SSW,195,30.0,46.0,40,0.00,,,-99.99,,2013-01-19 03:33:00,
2013-01-18 20:43:00,33.0,11.0,-100.00,SSW,200,30.0,40.0,40,0.00,,,-99.99,,2013-01-19 03:43:00,
2013-01-18 20:52:00,32.0,11.0,-100.00,South,175,27.0,38.0,40,0.00,,,-99.99,,2013-01-19 03:52:00,
2013-01-18 21:02:00,32.0,11.0,-100.00,SSW,205,27.0,37.0,40,0.00,,,-99.99,,2013-01-19 04:02:00,
2013-01-18 21:12:00,32.0,11.0,-100.00,SSW,195,25.0,34.0,41,0.00,,,-99.99,,2013-01-19 04:12:00,
2013-01-18 21:22:00,32.0,11.0,-100.00,SSW,210,29.0,42.0,41,0.00,,,-99.99,,2013-01-19 04:22:00,
2013-01-18 21:32:00,32.0,11.0,-100.00,SSW,195,35.0,47.0,41,0.00,,,-99.99,,2013-01-19 04:32:00,
2013-01-18 21:42:00,32.0,11.0,-100.00,SSE,160,33.0,47.0,41,0.00,,,-99.99,,2013-01-19 04:42:00,
2013-01-18 21:52:00,32.0,11.0,-100.00,SSE,160,34.0,45.0,41,0.00,,,-99.99,,2013-01-19 04:52:00,
2013-01-18 22:03:00,32.0,11.0,-100.00,SSE,165,36.0,49.0,41,0.00,,,-99.99,,2013-01-19 05:03:00,
2013-01-18 22:12:00,32.0,11.0,-100.00,SSE,155,34.0,49.0,41,0.00,,,-99.99,,2013-01-19 05:12:00,
2013-01-18 22:22:00,32.0,11.0,-100.00,SSE,155,31.0,42.0,41,0.00,,,-99.99,,2013-01-19 05:22:00,
2013-01-18 22:33:00,32.0,11.0,-100.00,SSW,195,28.0,41.0,41,0.00,,,-99.99,,2013-01-19 05:33:00,
2013-01-18 22:42:00,32.0,11.0,-100.00,SSW,205,32.0,42.0,41,0.00,,,-99.99,,2013-01-19 05:42:00,
2013-01-18 22:52:00,32.0,11.0,-100.00,South,180,29.0,47.0,41,0.00,,,-99.99,,2013-01-19 05:52:00,
2013-01-18 23:02:00,32.0,11.0,-100.00,SSW,195,29.0,37.0,41,0.00,,,-99.99,,2013-01-19 06:02:00,
2013-01-18 23:12:00,32.0,11.0,-100.00,SW,220,30.0,42.0,41,0.00,,,-99.99,,2013-01-19 06:12:00,
2013-01-18 23:22:00,31.0,11.0,-100.00,South,185,29.0,38.0,41,0.00,,,-99.99,,2013-01-19 06:22:00,
2013-01-18 23:32:00,31.0,11.0,-100.00,SSE,165,31.0,40.0,42,0.00,,,-99.99,,2013-01-19 06:32:00,
2013-01-18 23:43:00,31.0,11.0,-100.00,South,175,30.0,41.0,42,0.00,,,-99.99,,2013-01-19 06:43:00,
2013-01-18 23:52:00,31.0,11.0,-100.00,West,265,34.0,40.0,42,0.00,,,-99.99,,2013-01-19 06:52:00,